Location: Unspecified
(42.6533°N, 0.0000°E)
Time: 01:10:30
(UTC+00:00)

Resurs 1-4 Rocket - Visible Passes

Search period start: 04 April 2026 00:00
Search period end: 14 April 2026 00:00
Orbit: 798 x 812 km, 98.8° (Epoch: 29 March)

Date Brightness Start Highest point End Pass type
(mag) Time Alt. Az. Time Alt. Az. Time Alt. Az.
4 Apr 3.5 02:01:10 10° NNE 02:05:14 33° E 02:05:14 33° E visible
4 Apr 2.9 03:40:59 10° N 03:45:39 32° WNW 03:46:16 31° W visible
5 Apr 4.2 01:36:40 10° NE 01:39:51 20° E 01:39:51 20° E visible
5 Apr 2.2 03:15:28 10° N 03:20:37 53° WNW 03:20:53 52° W visible
6 Apr 4.7 01:13:14 10° ENE 01:14:27 11° E 01:14:27 11° E visible
6 Apr 2.0 02:50:09 10° NNE 02:55:29 87° WNW 02:55:29 87° WNW visible
6 Apr 4.0 04:32:06 10° NNW 04:34:27 13° WNW 04:36:33 11° W visible
7 Apr 2.6 02:25:03 10° NNE 02:30:07 56° E 02:30:07 56° E visible
7 Apr 3.5 04:05:44 10° NNW 04:09:37 21° WNW 04:11:10 18° W visible
8 Apr 3.4 02:00:12 10° NNE 02:04:44 33° E 02:04:44 33° E visible
8 Apr 2.9 03:39:57 10° N 03:44:41 33° WNW 03:45:47 30° W visible
9 Apr 4.1 01:35:44 10° NE 01:39:21 20° E 01:39:21 20° E visible
9 Apr 2.2 03:14:27 10° N 03:19:39 54° WNW 03:20:23 50° W visible
10 Apr 4.7 01:12:27 10° ENE 01:13:57 11° E 01:13:57 11° E visible
10 Apr 1.9 02:49:10 10° NNE 02:54:31 89° WNW 02:55:00 75° SSW visible
10 Apr 4.0 04:31:01 10° NNW 04:33:29 13° WNW 04:35:56 10° W visible
11 Apr 2.5 02:24:04 10° NNE 02:29:18 54° E 02:29:36 54° ESE visible
11 Apr 3.5 04:04:42 10° NNW 04:08:38 21° WNW 04:10:39 17° W visible
12 Apr 3.4 01:59:13 10° NNE 02:03:58 32° E 02:04:13 32° ESE visible
12 Apr 2.9 03:38:57 10° N 03:43:41 34° WNW 03:45:15 28° W visible
13 Apr 4.1 01:34:48 10° NE 01:38:34 19° E 01:38:49 19° E visible
13 Apr 2.2 03:13:27 10° N 03:18:39 56° WNW 03:19:52 45° WSW visible
